sat.trackr.live / text

‹ back to catalog

STARLINK-32231

NORAD 60439 · 2024-144Q

PAYLOAD ACTIVE UNKNOWN

§ Identity

Operator
Country
US
Launch date
2024-08-12
Launch site
AFETR
Launch vehicle
Mass (kg)
RCS (m²)

Purposes: comms

External: N2YO · Heavens-Above · Gunter

§ Orbital elements

Epoch: 2026-09-21T15:42:43.399008Z

Period
93.85 min
Inclination
53.1610°
Eccentricity
0.0001103
Mean motion
15.34388468 rev/d
Perigee alt
462.0 km
Apogee alt
463.5 km
Semi-major
6,840.9 km
B*
7.0406e-5
RAAN
22.5435°
Arg perigee
97.3508°
Mean anomaly
262.7620°
Rev number
11,847

§ Raw data

STARLINK-322311 60439U 24144Q   26264.65466897  .00002002  00000+0  70406-4 0  99922 60439  53.1610  22.5435 0001103  97.3508 262.7620 15.34388468118474

JSON: /api/v1/satellites/60439 · /tle

For live sub-satellite position, see the globe view (requires WebGL).

§ Visibility from observer

Set your observer location to see the next 7 days of passes ≥ 10°. The values pass through the URL so the page stays shareable.

No JS? Fill the form by hand. The geolocation button needs JavaScript.